This is the latest recevied weather packets stored in our database for station/object KO4ZGL-13. If no packets are shown the sender has not sent any weather packets the latest 10 day(s).
| Time | Temp. | Humidity | Pressure | Rain* | Wind** | Luminosity | Snow |
|---|---|---|---|---|---|---|---|
| 1787875714 | 25° C | 98% | 1015.9 hPa | 8.89 mm | - | 0 W/m² | - |
| 1787875413 | 25° C | 97% | 1015.7 hPa | 7.11 mm | - | 0 W/m² | - |
| 1787875107 | 25.56° C | 97% | 1015.7 hPa | 6.6 mm | - | 0 W/m² | - |
| 1787874802 | 25.56° C | 96% | 1015.8 hPa | 6.6 mm | - | 0 W/m² | - |
| 1787874500 | 26.11° C | 96% | 1015.6 hPa | 4.32 mm | - | 0 W/m² | - |
| 1787874195 | 26.11° C | 96% | 1015.7 hPa | 1.27 mm | - | 0 W/m² | - |
| 1787873890 | 26.11° C | 95% | 1015.6 hPa | 0 mm | - | 0 W/m² | - |
| 1787873590 | 26.11° C | 95% | 1015.4 hPa | 0 mm | - | 0 W/m² | - |
| 1787873285 | 26.11° C | 95% | 1015.4 hPa | 0 mm | - | 0 W/m² | - |
| 1787872984 | 26.11° C | 95% | 1015.3 hPa | 0 mm | - | 1 W/m² | - |
| 1787872679 | 26.11° C | 95% | 1015.5 hPa | 0 mm | - | 1 W/m² | - |
| 1787872374 | 26.11° C | 94% | 1015.4 hPa | 0 mm | - | 2 W/m² | - |
| 1787872069 | 26.67° C | 94% | 1015.4 hPa | 0 mm | - | 3 W/m² | - |
| 1787871764 | 26.67° C | 93% | 1015.3 hPa | 0 mm | - | 6 W/m² | - |
| 1787871459 | 26.67° C | 93% | 1015.5 hPa | 0 mm | - | 6 W/m² | - |
| 1787871154 | 26.67° C | 93% | 1015.3 hPa | 0 mm | - | 10 W/m² | - |
| 1787870854 | 26.67° C | 93% | 1015.3 hPa | 0 mm | - | 9 W/m² | - |
| 1787870549 | 26.67° C | 92% | 1015.6 hPa | 0 mm | - | 7 W/m² | - |
| 1787870244 | 26.67° C | 92% | 1015.6 hPa | 0 mm | - | 9 W/m² | - |
| 1787869939 | 26.67° C | 92% | 1015.7 hPa | 0 mm | - | 7 W/m² | - |
| 1787869638 | 27.22° C | 91% | 1015.6 hPa | 0 mm | - | 18 W/m² | - |
| 1787869333 | 27.22° C | 90% | 1015.6 hPa | 0 mm | - | 28 W/m² | - |
| 1787869032 | 27.22° C | 90% | 1015.7 hPa | 0 mm | - | 35 W/m² | - |
| 1787868731 | 27.22° C | 90% | 1015.4 hPa | 0 mm | - | 49 W/m² | - |
| 1787868430 | 27.22° C | 90% | 1015.2 hPa | 0 mm | - | 66 W/m² | - |
* Rain latest hour (hover to see other rain measurements)
** Current wind speed in m/s (hover to see current wind gust speed)